Location: ???????
(55.9167°N, 37.8500°E)
Time: 12:54:15
(UTC+00:00)

Daily predictions for brighter satellites

Satellite Brightness Start Highest point End
(mag) Time Altitude Azimuth Time Altitude Azimuth Time Altitude Azimuth
H-2A R/B 4.3 18:51:24 10° ESE 18:54:41 22° NE 18:58:01 10° N
Cosmos 1743 Rocket 4.3 18:51:21 10° NNW 18:55:40 53° W 18:59:59 10° S
Cosmos 1766 4.0 18:52:56 10° N 18:56:29 39° ENE 19:00:02 10° SE
SL-16 R/B 4.5 18:52:55 10° W 18:57:57 31° NNW 19:03:01 10° NNE
Cosmos 1603 4.1 18:54:45 10° SW 19:00:27 74° NW 19:06:13 10° NNE
Cosmos 2360 4.3 19:01:16 10° NW 19:07:02 84° WSW 19:12:46 10° SSE
Okean 1 4.3 19:04:11 10° SSW 19:07:57 48° WNW 19:11:46 10° N
Landsat 5 3.5 19:06:39 10° NNE 19:10:21 49° E 19:14:05 10° S
Cosmos 1470 3.9 19:07:29 10° N 19:10:46 29° ENE 19:14:02 10° SE
Cosmos 1151 Rocket 3.1 19:08:52 10° SSW 19:13:13 85° WNW 19:17:33 10° NNE
Cosmos 1975 3.0 19:10:14 10° NNW 19:14:11 69° W 19:18:05 10° S
USA 281 3.4 19:07:47 10° SSE 19:14:23 78° WSW 19:21:02 10° NNW
NOSS 3-3 (A) 4.2 19:12:34 10° SSW 19:17:53 46° SE 19:24:04 10° NE
MOS 1 Rocket 4.3 19:16:17 10° S 19:21:26 52° W 19:26:45 10° NNW
Cosmos 1092 Rocket 4.1 19:18:31 10° S 19:24:48 72° E 19:31:08 10° NNE
Cosmos 1908 4.3 19:24:31 10° N 19:27:42 29° ENE 19:30:53 10° SE
Cosmos 220 Rocket 4.0 19:23:27 10° SSW 19:27:47 89° ESE 19:32:06 10° NNE
ARIANE 5 R/B 2.9 19:25:29 10° SE 19:29:38 56° ENE 19:33:53 10° N
NOSS 3-4 (A) 3.8 19:24:17 10° NW 19:30:53 80° SW 19:38:33 10° SE
NOSS 3-4 (C) 3.8 19:24:23 10° NW 19:30:59 81° SW 19:38:39 10° SE
Cosmos 2195 Rocket 4.5 19:25:02 10° S 19:31:09 88° E 19:37:19 10° NNE
Cosmos 1328 Rocket 3.5 19:28:41 10° S 19:32:59 70° E 19:37:16 10° NNE
CZ-2C R/B 4.5 19:29:36 10° NNE 19:33:44 35° E 19:37:29 12° SSE
Cosmos 1140 Rocket 4.3 19:34:28 10° SSE 19:39:05 34° ESE 19:43:46 10° NE
OPS 6432 4.3 19:38:54 10° NW 19:42:12 75° NE 19:45:17 10° ESE
Cosmos 1515 Rocket 4.0 19:40:01 12° SSE 19:43:49 46° E 19:47:58 10° NNE
Cosmos 1697 Rocket 2.9 19:38:41 10° NW 19:44:18 68° WSW 19:49:25 12° SSE
Cosmos 2322 Rocket 4.1 19:39:31 10° NNW 19:44:18 27° NNE 19:49:04 10° E
Cosmos 1626 1.9 19:45:32 10° SSW 19:48:45 73° WNW 19:51:59 10° N
Cosmos 1470 Rocket 3.8 19:46:03 10° NNW 19:50:30 70° W 19:54:36 12° S
NOSS 3-3 (C) 3.9 19:45:52 10° SSW 19:51:24 65° SE 19:58:02 10° NE
Cosmos 1869 Rocket 4.2 19:47:51 10° N 19:52:06 47° ENE 19:55:52 13° SE
Cosmos 1633 Rocket 3.9 19:49:12 10° NNW 19:53:25 45° W 19:57:36 10° SSW
Cosmos 1980 Rocket 2.3 19:48:47 10° NW 19:54:32 83° NE 19:59:53 12° SE
Cosmos 1707 3.5 19:51:54 14° SSE 19:54:35 35° E 19:57:56 10° NNE
Cosmos 1300 4.5 19:52:42 10° NNE 19:55:28 21° ENE 19:58:14 10° ESE
USA 234 3.4 19:51:00 10° E 19:57:35 82° N 20:04:09 10° W
Cosmos 2333 Rocket 4.2 19:54:34 10° NNW 19:59:23 27° NNE 20:04:13 10° E
Cosmos 1441 Rocket 3.6 19:56:59 10° N 20:00:29 48° ENE 20:03:19 14° SE
Cosmos 44 Rocket 4.2 19:58:58 10° WNW 20:03:27 35° WSW 20:07:10 13° S
Lacrosse 5 rocket 1.5 20:01:30 10° WNW 20:05:40 57° SSW 20:09:28 11° SE
Cosmos 540 Rocket 3.9 20:00:57 10° NNW 20:06:05 59° ENE 20:10:59 11° SE
Cosmos 1763 Rocket 3.6 20:02:50 10° NNW 20:08:11 76° ENE 20:12:54 13° SE
Cosmos 468 Rocket 4.4 20:05:23 10° NNW 20:10:39 60° NE 20:15:39 11° SE
Cosmos 1066 Rocket 4.4 20:05:36 10° SSW 20:11:28 86° WNW 20:17:22 10° NNE
Meteor 2-12 Rocket 4.5 20:06:05 10° S 20:12:10 81° E 20:18:22 10° NNE
Meteor 2-4 Rocket 4.5 20:06:56 10° SSW 20:12:46 57° WNW 20:18:36 10° N
Cosmos 1842 3.1 20:10:07 15° S 20:13:08 70° E 20:16:49 10° NNE
Cosmos 2026 Rocket 4.5 20:07:03 10° SSW 20:13:15 61° WNW 20:19:24 10° N
Cosmos 1674 2.4 20:11:20 14° S 20:14:15 81° E 20:17:46 10° NNE
Cosmos 1933 Rocket 3.7 20:11:05 10° NNW 20:15:27 73° W 20:19:05 15° S
GP-B 4.4 20:16:23 10° NNE 20:20:17 30° E 20:23:40 13° SE
Cosmos 407 Rocket 3.9 20:16:11 13° S 20:20:36 48° ESE 20:25:37 10° NE
MINOTAUR 4 R/B 3.5 20:18:23 10° NNE 20:21:23 82° ESE 20:23:36 16° SSW
Cosmos 2369 3.7 20:16:12 10° NW 20:21:57 85° WSW 20:26:58 14° SSE
Cosmos 1818 3.8 20:16:38 10° SW 20:22:07 78° NW 20:27:39 10° NE
Cosmos 1607 4.1 20:16:57 10° SSW 20:23:18 61° SE 20:29:42 10° NE
KORONAS-FOTON 3.7 20:20:39 15° S 20:23:40 83° E 20:27:24 10° NNE
ATLAS 2AS CENTAUR R/B 3.6 20:20:44 10° WNW 20:27:37 51° NNE 20:34:11 10° E
H-2A R/B 2.7 20:25:54 16° S 20:29:14 68° WSW 20:33:33 10° NNW
Terra 4.4 20:29:27 10° W 20:30:36 11° W 20:31:46 10° WNW
Cosmos 2219 Rocket 4.2 20:27:43 10° NNW 20:32:28 27° NNE 20:37:13 10° E
SAR-Lupe-3 4.5 20:30:08 18° SSE 20:32:38 82° WSW 20:36:11 10° NNW
RESURS DK-1 4.4 20:29:57 10° NNW 20:33:23 25° NE 20:36:48 10° E
Cosmos 1833 Rocket 2.7 20:27:46 10° SSW 20:33:24 90° WNW 20:39:04 10° NE
SL-16 R/B 2.9 20:28:46 10° NNW 20:34:22 54° NE 20:39:55 10° SE
COSMOS 2406 4.1 20:33:19 15° SSE 20:37:18 34° ESE 20:42:25 10° NE
ALOS 2 2.6 20:34:53 17° SSE 20:38:18 86° ENE 20:42:44 10° NNW
Meteor 1-12 Rocket 4.4 20:32:55 10° NNW 20:38:53 79° ENE 20:43:55 15° SSE
S3M 4.2 20:32:41 10° NNW 20:39:06 76° W 20:44:31 15° S
Cosmos 1758 3.4 20:40:10 10° N 20:44:01 65° ENE 20:46:48 18° SSE
Cosmos 1470 3.9 20:42:50 10° NNW 20:46:10 32° W 20:48:57 13° SSW
Cosmos 2082 Rocket 2.7 20:42:09 15° S 20:46:30 45° ESE 20:51:54 10° NE
Cosmos 2360 Rocket 3.4 20:41:11 10° NNW 20:46:33 40° NE 20:51:54 10° ESE
Cosmos 2251 Rocket 3.5 20:44:25 13° SSW 20:49:02 70° ESE 20:54:21 10° NNE
Meteor 2-10 Rocket 3.8 20:47:18 10° NNW 20:53:10 89° WSW 20:57:48 16° SSE
Cosmos 1707 Rocket 4.3 20:51:02 17° SSE 20:54:08 42° E 20:58:21 10° NNE
GEOS 3 Rocket 3.5 20:49:04 10° NE 20:54:18 79° SE 20:59:27 10° SW
SL-08 ROCKET BODY 4.5 20:50:51 14° S 20:56:12 87° E 21:02:25 10° NNE
Cosmos 724 4.2 20:53:22 10° SW 20:59:16 80° SE 21:05:06 10° NE
Cosmos 2315 Rocket 4.1 20:53:13 10° NNW 20:59:32 77° W 21:04:44 16° S
Cosmos 1908 4.4 20:59:26 10° NNW 21:02:35 30° W 21:05:04 14° SSW
Meteor 1-13 Rocket 4.4 20:57:59 13° SSW 21:03:16 83° WNW 21:09:08 10° NNE
ARIANE 5 R/B 4.3 21:02:57 10° SW 21:06:22 23° W 21:09:51 10° NW
Okean 3 4.4 21:05:01 16° SSE 21:07:45 36° E 21:11:33 10° NNE
NOSS 3-3 (A) 4.5 21:02:46 10° WSW 21:08:35 66° NNW 21:15:33 10° NE
Cosmos 2237 4.3 21:03:23 10° NW 21:09:10 88° NE 21:14:36 12° SE
H-2A R/B 2.9 21:05:45 10° NNE 21:09:57 40° E 21:12:54 17° SSE
Cosmos 2285 Rocket 4.1 21:04:24 10° SSW 21:10:45 79° WNW 21:17:10 10° NNE
Meteor 1-4 Rocket 4.4 21:10:32 11° ESE 21:12:06 15° E 21:13:53 10° NE
BREEZE-M DEB (TANK) 4.3 21:15:46 10° SW 21:19:00 39° SSE 21:27:47 10° E
Cosmos 1908 Rocket 4.3 21:15:08 10° N 21:19:27 47° ENE 21:23:12 13° SE
Cosmos 2278 3.7 21:14:31 10° NW 21:20:15 75° WSW 21:25:09 14° SSE
Cosmos 1140 Rocket 4.2 21:15:34 10° SW 21:20:41 53° NW 21:25:48 10° NNE
Cosmos 1346 Rocket 2.7 21:17:23 10° NNW 21:21:18 82° WSW 21:23:58 20° S
SL-24 R/B 4.5 21:18:22 10° NNE 21:23:05 75° ESE 21:27:08 17° S
Cosmos 1733 Rocket 3.2 21:18:47 10° NNW 21:23:06 66° W 21:26:12 19° S
Cosmos 2266 Rocket 4.4 21:17:38 12° SSW 21:23:24 62° WNW 21:29:43 10° N
Cosmos 2322 Rocket 2.4 21:23:33 10° NNW 21:29:15 76° NE 21:34:56 10° SE
Cosmos 1707 4.3 21:26:33 10° SW 21:29:40 26° WNW 21:32:48 10° N
Helios 1A Rocket 4.3 21:26:41 10° SE 21:30:07 31° ENE 21:33:32 10° N
Cosmos 1300 3.1 21:27:01 10° NNW 21:30:26 44° W 21:32:38 19° SSW
Cosmos 1400 Rocket 2.8 21:27:50 18° SSW 21:30:44 78° WNW 21:34:43 10° NNE
Cosmos 841 Rocket 3.5 21:26:33 10° NNW 21:31:48 73° WSW 21:36:04 16° SSE
BREEZE-M DEB (TANK) 1.8 21:28:34 10° WSW 21:32:24 45° S 21:34:25 10° ESE
Meteor 1-21 4.3 21:28:43 17° S 21:33:14 74° E 21:39:02 10° NNE
Cosmos 1980 Rocket 3.6 21:33:27 10° NW 21:37:57 24° WSW 21:41:37 13° SSW
USA 234 3.2 21:34:08 10° ESE 21:40:43 78° SSW 21:47:19 10° WNW
Orbus 7S? 2.5 21:37:20 10° WSW 21:40:46 75° SSE 21:43:29 10° ENE
Lacrosse 5 rocket 2.9 21:40:35 10° W 21:43:20 17° SW 21:44:16 16° SSW
Cosmos 2333 Rocket 2.5 21:38:52 10° NNW 21:44:37 73° NE 21:50:22 10° SE
Okean 1-7 3.4 21:41:35 17° SSE 21:44:41 54° E 21:48:55 10° NNE
Cosmos 2228 Rocket 3.4 21:41:50 16° SSW 21:45:20 66° WNW 21:49:53 10° N
Cosmos 1655 Rocket 4.4 21:41:21 13° SSW 21:47:05 60° WNW 21:53:26 10° N
Cosmos 1242 Rocket 4.4 21:47:54 10° SE 21:49:39 15° E 21:51:23 10° NE
Cosmos 1953 2.2 21:50:18 10° NNW 21:54:14 83° W 21:57:01 18° S
Cosmos 1356 Rocket 3.4 21:51:21 18° SSW 21:54:22 77° WNW 21:58:35 10° NNE
GP-B 3.9 21:53:27 10° N 21:57:37 42° W 22:00:59 15° SW
SL-27 R/B 4.4 21:56:30 10° SE 21:57:51 13° E 21:59:12 10° ENE
Genesis I 4.1 21:59:24 19° S 22:01:08 28° SE 22:04:14 10° ENE
SL-14 R/B 4.1 22:01:00 14° SW 22:03:59 41° WNW 22:07:38 10° N
Cosmos 1703 Rocket 3.9 22:01:24 16° S 22:04:47 58° E 22:09:11 10° NNE
Cosmos 1300 Rocket 4.0 22:01:42 10° N 22:06:00 59° ENE 22:10:02 11° SSE
Aureole 3 3.2 22:04:37 19° SSW 22:06:38 53° WNW 22:10:03 10° N
Cosmos 1455 2.0 22:03:39 10° NNW 22:07:06 69° W 22:09:28 19° S
Cosmos 1862 Rocket 4.0 22:05:04 15° SSW 22:08:29 54° WNW 22:12:47 10° N
Cosmos 676 Rocket 4.2 22:04:33 13° SW 22:09:16 77° WNW 22:14:38 10° NNE
Cosmos 1954 Rocket 4.3 22:05:17 12° SW 22:10:15 66° WNW 22:15:33 10° NNE
RESURS DK-1 2.2 22:07:27 10° NW 22:11:33 76° SW 22:15:33 10° SSE
SJ 16-02 2.7 22:08:51 13° SSE 22:12:02 28° ESE 22:15:44 10° NE
Cosmos 1814 Rocket 4.0 22:08:49 10° NNW 22:14:04 85° WSW 22:19:21 10° SSE
Cosmos 2219 Rocket 2.4 22:11:39 10° NNW 22:17:21 74° NE 22:23:01 10° SE
Cosmos 1833 Rocket 4.5 22:13:08 10° W 22:18:02 30° NNW 22:22:59 10° NNE
SL-16 R/B 2.8 22:13:07 10° NW 22:18:24 41° WSW 22:22:42 15° S
ATLAS 2AS CENTAUR R/B 2.7 22:12:04 10° NW 22:19:03 82° SW 22:25:44 10° SE
PSLV R/B 4.5 22:15:20 10° N 22:19:36 43° WNW 22:23:26 12° SW
COSMOS 2406 3.6 22:15:36 10° SW 22:21:20 63° NW 22:27:05 10° NNE
Cosmos 2322 4.3 22:21:42 10° NNW 22:27:23 60° NE 22:33:00 10° SE
Cosmos 2082 Rocket 3.0 22:25:01 10° WSW 22:30:35 50° NW 22:36:10 10° NNE
Cosmos 2360 Rocket 2.3 22:25:15 10° NW 22:30:51 60° WSW 22:36:24 10° SSE
Cosmos 2333 4.2 22:27:20 10° NW 22:33:04 74° WSW 22:38:49 10° SSE
Cosmos 839 Rocket 4.3 22:26:59 10° NW 22:34:28 67° SW 22:40:45 10° SSE
Cosmos 2242 Rocket 4.3 22:30:58 12° SSE 22:34:56 48° E 22:39:18 10° NNE
Cosmos 1745 Rocket 4.1 22:30:04 14° S 22:35:34 88° E 22:41:57 10° NNE
Cosmos 405 Rocket 4.4 22:33:38 10° N 22:36:53 30° ENE 22:40:09 10° SE
SL-16 R/B 4.0 22:32:10 10° ESE 22:37:50 38° NE 22:43:32 10° N
CZ-2C R/B 3.4 22:35:12 10° SE 22:40:11 50° ENE 22:45:16 10° N
Okean 2 3.9 22:38:45 15° SW 22:41:55 49° WNW 22:45:49 10° N
Meteor 1-4 Rocket 2.8 22:42:38 16° SW 22:44:45 41° WNW 22:47:37 10° N
USA 267 3.6 22:38:48 10° ENE 22:45:06 47° SE 22:51:04 11° SW
H-2A R/B 3.3 22:41:35 10° N 22:45:36 35° WNW 22:49:34 10° SW
Nadezhda 1 Rocket 4.5 22:42:28 10° NNW 22:48:38 51° W 22:54:10 13° SSW
Cosmos 2237 Rocket 3.7 22:45:25 10° NNW 22:50:47 40° NE 22:56:06 10° ESE
Cosmos 1570 Rocket 4.1 22:47:04 10° NNW 22:52:26 90° E 22:57:46 10° SSE
Cosmos 1315 Rocket 3.2 22:49:16 14° SW 22:52:29 52° WNW 22:56:23 10° N
COSMOS 2428 3.0 22:48:08 10° NNW 22:53:51 71° NE 22:59:31 10° SE
Cosmos 1782 Rocket 4.1 22:53:22 10° NNW 22:57:31 43° W 23:01:04 13° SSW
Cosmos 968 Rocket 3.5 22:56:50 13° SSW 23:01:25 87° ESE 23:06:38 10° NNE
H-2A R/B 4.4 22:58:18 10° NNE 23:02:03 38° E 23:05:46 10° SSE
Helios 1A Rocket 3.6 23:01:28 14° SSW 23:04:25 35° W 23:07:58 10° NNW
Cosmos 2208 Rocket 4.1 22:59:19 10° NNW 23:04:39 88° ENE 23:09:52 10° SSE
SL-4 R/B 3.3 23:02:20 13° SSW 23:05:17 27° SSE 23:09:01 10° E
Cosmos 2098 Rocket 3.9 23:00:39 10° NNW 23:06:13 86° W 23:12:36 10° S
EXPRESS MD2 4.0 23:10:58 14° SSW 23:12:35 23° SSE 23:15:41 10° ESE
Cosmos 2322 Rocket 3.3 23:08:09 10° NW 23:12:49 27° WSW 23:17:16 11° SSW
Resurs 1-4 Rocket 2.9 23:09:53 10° NNE 23:14:58 47° E 23:20:01 10° S
MOZ.5/SAFIR/RUBIN 5/SL-8 4.0 23:10:23 10° S 23:14:59 53° W 23:19:36 10° NNW
Cosmos 1850 Rocket 4.4 23:10:20 10° SW 23:15:32 59° NW 23:20:45 10° NNE
Cosmos 1408 2.1 23:15:08 13° SSW 23:17:39 65° WNW 23:20:38 10° N
Meteor 1-24 Rocket 4.1 23:14:09 10° S 23:20:07 72° E 23:25:59 10° NNE
Cosmos 1242 Rocket 2.8 23:19:14 12° SW 23:21:36 37° WNW 23:24:19 10° N
CZ-2D R/B 2.8 23:17:28 10° NNE 23:22:49 51° E 23:28:04 10° S
USA 234 3.7 23:18:16 10° SSE 23:24:20 39° SW 23:30:26 10° WNW
Cosmos 2297 Rocket 4.4 23:23:15 10° SE 23:26:45 17° E 23:30:16 10° ENE
OPS 8737 4.3 23:23:58 10° WNW 23:26:47 44° SW 23:29:42 10° SSE
Cosmos 2333 Rocket 3.2 23:23:39 10° NW 23:28:29 29° WSW 23:33:18 10° SSW
CRYOSAT 2 4.5 23:24:17 10° N 23:29:13 82° E 23:34:08 10° S
SL-27 R/B 2.4 23:27:58 11° SW 23:30:31 48° WNW 23:33:17 10° NNE
Cosmos 1703 3.1 23:29:18 10° SSW 23:32:59 75° WNW 23:36:44 10° N
IDEFIX/ARIANE 42P 2.7 23:31:45 10° NNE 23:37:04 82° ESE 23:42:19 10° SSW
Cosmos 1709 Rocket 4.4 23:30:52 10° SSW 23:37:06 56° WNW 23:43:24 10° N
Genesis I 3.5 23:33:46 10° WSW 23:37:15 54° NW 23:40:48 10° NE
Cosmos 1455 Rocket 4.5 23:35:05 10° N 23:39:14 40° ENE 23:43:24 10° SE
NOSS 5 (C) 4.1 23:36:55 10° NW 23:40:13 79° SW 23:43:21 10° SE
ADEOS II 2.8 23:38:57 10° NNE 23:44:06 52° E 23:49:11 10° S
RESURS DK-1 4.3 23:46:46 10° WNW 23:48:34 13° WSW 23:50:21 10° SW
CZ-4C R/B 4.3 23:47:55 10° SE 23:49:39 12° ESE 23:51:30 10° E
SJ 16-02 1.9 23:46:00 10° SW 23:50:11 48° WNW 23:54:24 10° NNE
Cosmos 1825 2.4 23:49:25 10° S 23:52:47 57° E 23:56:10 10° NNE
Cosmos 2181 Rocket 4.4 23:46:47 10° NNW 23:52:51 49° W 23:58:48 10° SSW
